WXM80 ListenWXM80 Stop

You find our weather info also at:

UK Metoffice

WeatherCloud

Weather Underground

Northeastern Weather Network

AWEKAS

Citizen Weather Observer Program (CWOP)

HAMweather, WeatherForYou, PWS Weather


Weather Underground History page Text

Daily Summary for January 28, 2016 Units:  English    Metric   Both
« Previous Day
Next Day »
Daily Weekly Monthly Yearly Custom
  High: Low: Average:
Temperature: 47.2 °F 26.8 °F 36.4 °F
Dew Point: 32.1 °F 22.0 °F 26.8 °F
Humidity: 83 % 51 % 69 %
Wind Speed: 8.9 mph 0.0 mph 1.6 mph
Wind Gust: 16.1 mph - -
Wind:- - SSW
Pressure: 30.11 in 29.65 in -
Precipitation: 0.00 in    
Historical Graphs
 
 
Tabular Data for January 28, 2016
Time Temperature Dew Point Pressure Wind Wind Speed Wind Gust Humidity Rainfall Rate (Hourly)
00:01 34.8 °F 23.9 °F 30.11 in North 2.2 mph 3.5 mph 64 % 0.00 in
00:06 34.6 °F 23.7 °F 30.11 in Calm     64 % 0.00 in
00:11 34.6 °F 23.3 °F 30.11 in North 0.2 mph 3.5 mph 63 % 0.00 in
00:16 34.4 °F 23.5 °F 30.11 in North 0.4 mph 1.2 mph 64 % 0.00 in
00:21 34.3 °F 23.4 °F 30.11 in North 0.4 mph 1.2 mph 64 % 0.00 in
00:26 34.2 °F 23.7 °F 30.11 in North 0.8 mph 2.3 mph 65 % 0.00 in
00:31 34.0 °F 23.8 °F 30.11 in Calm   2.3 mph 66 % 0.00 in
00:36 33.7 °F 23.9 °F 30.11 in Calm     67 % 0.00 in
00:42 33.3 °F 23.5 °F 30.11 in Calm     67 % 0.00 in
00:52 32.6 °F 23.2 °F 30.11 in North 1.0 mph 2.3 mph 68 % 0.00 in
00:57 32.0 °F 23.0 °F 30.11 in North 0.9 mph 1.2 mph 69 % 0.00 in
01:02 31.6 °F 22.9 °F 30.11 in North 0.3 mph 1.2 mph 70 % 0.00 in
01:07 31.4 °F 23.1 °F 30.11 in Calm     71 % 0.00 in
01:12 31.1 °F 23.1 °F 30.10 in Calm     72 % 0.00 in
01:17 30.8 °F 22.8 °F 30.10 in Calm     72 % 0.00 in
01:22 30.5 °F 22.5 °F 30.09 in Calm     72 % 0.00 in
01:27 30.3 °F 22.7 °F 30.09 in Calm     73 % 0.00 in
01:33 30.0 °F 22.4 °F 30.09 in North 0.8 mph 1.2 mph 73 % 0.00 in
01:43 29.4 °F 22.5 °F 30.10 in North 0.8 mph 2.3 mph 75 % 0.00 in
01:48 29.1 °F 22.5 °F 30.11 in North 1.0 mph 2.3 mph 76 % 0.00 in
01:58 28.7 °F 22.4 °F 30.11 in North 1.0 mph 1.2 mph 77 % 0.00 in
02:03 28.6 °F 22.3 °F 30.11 in Calm     77 % 0.00 in
02:08 28.5 °F 22.2 °F 30.10 in North 0.8 mph 1.2 mph 77 % 0.00 in
02:13 28.4 °F 22.4 °F 30.10 in Calm     78 % 0.00 in
02:18 28.3 °F 22.3 °F 30.10 in Calm     78 % 0.00 in
02:29 28.0 °F 22.0 °F 30.09 in Calm     78 % 0.00 in
02:34 27.8 °F 22.1 °F 30.09 in Calm   1.2 mph 79 % 0.00 in
02:39 27.7 °F 22.0 °F 30.09 in North 0.1 mph 1.2 mph 79 % 0.00 in
02:44 27.6 °F 22.2 °F 30.09 in Calm     80 % 0.00 in
02:49 27.5 °F 22.1 °F 30.09 in Calm     80 % 0.00 in
02:54 27.4 °F 22.0 °F 30.08 in Calm     80 % 0.00 in
02:59 27.3 °F 22.2 °F 30.08 in North 0.8 mph 2.3 mph 81 % 0.00 in
03:04 27.3 °F 22.5 °F 30.08 in North 0.2 mph 1.2 mph 82 % 0.00 in
03:09 27.3 °F 22.5 °F 30.09 in North 0.1 mph 1.2 mph 82 % 0.00 in
03:15 27.4 °F 22.6 °F 30.09 in North 1.1 mph 2.3 mph 82 % 0.00 in
03:20 27.4 °F 22.9 °F 30.08 in North 0.7 mph 2.3 mph 83 % 0.00 in
03:25 27.3 °F 22.5 °F 30.08 in North 0.2 mph 2.3 mph 82 % 0.00 in
03:30 27.4 °F 22.9 °F 30.08 in Calm     83 % 0.00 in
03:35 27.4 °F 22.9 °F 30.08 in North 0.2 mph 1.2 mph 83 % 0.00 in
03:40 27.4 °F 22.9 °F 30.07 in North 0.3 mph 1.2 mph 83 % 0.00 in
03:45 27.4 °F 22.9 °F 30.07 in Calm   1.2 mph 83 % 0.00 in
03:50 27.4 °F 22.9 °F 30.07 in Calm     83 % 0.00 in
03:55 27.4 °F 22.9 °F 30.06 in North 0.9 mph 1.2 mph 83 % 0.00 in
04:01 27.3 °F 22.8 °F 30.06 in North 1.2 mph 2.3 mph 83 % 0.00 in
04:06 27.3 °F 22.8 °F 30.06 in North 0.1 mph 2.3 mph 83 % 0.00 in
04:11 27.2 °F 22.7 °F 30.06 in North 0.5 mph 2.3 mph 83 % 0.00 in
04:16 27.2 °F 22.7 °F 30.06 in North 0.6 mph 2.3 mph 83 % 0.00 in
04:21 27.1 °F 22.6 °F 30.06 in SSE 0.7 mph 2.3 mph 83 % 0.00 in
04:26 27.1 °F 22.6 °F 30.06 in SSE 0.9 mph 2.0 mph 83 % 0.00 in
04:31 27.0 °F 22.5 °F 30.05 in SSE 0.3 mph 2.3 mph 83 % 0.00 in
04:36 27.0 °F 22.5 °F 30.05 in SSE 0.6 mph 2.3 mph 83 % 0.00 in
04:41 27.0 °F 22.5 °F 30.04 in Calm   1.2 mph 83 % 0.00 in
04:46 27.0 °F 22.5 °F 30.04 in Calm   1.2 mph 83 % 0.00 in
04:52 27.0 °F 22.5 °F 30.03 in SSE 0.8 mph 2.0 mph 83 % 0.00 in
04:57 27.0 °F 22.5 °F 30.03 in SSE 0.2 mph   83 % 0.00 in
05:02 27.0 °F 22.5 °F 30.04 in SSE 0.2 mph 3.5 mph 83 % 0.00 in
05:07 27.0 °F 22.5 °F 30.03 in SSE 0.2 mph 1.2 mph 83 % 0.00 in
05:12 26.9 °F 22.4 °F 30.03 in SSE 0.5 mph 1.2 mph 83 % 0.00 in
05:17 26.9 °F 22.4 °F 30.03 in SSE 0.2 mph 1.2 mph 83 % 0.00 in
05:22 26.9 °F 22.4 °F 30.03 in SSE 1.0 mph 2.3 mph 83 % 0.00 in
05:27 26.9 °F 22.4 °F 30.03 in SSE 0.6 mph 2.0 mph 83 % 0.00 in
05:32 26.9 °F 22.4 °F 30.03 in SSE 0.6 mph 1.2 mph 83 % 0.00 in
05:37 26.9 °F 22.4 °F 30.02 in SSE 0.3 mph 1.2 mph 83 % 0.00 in
05:43 26.8 °F 22.3 °F 30.02 in SSE 0.1 mph 1.2 mph 83 % 0.00 in
05:48 26.8 °F 22.3 °F 30.02 in SSE 1.2 mph 2.3 mph 83 % 0.00 in
05:58 27.0 °F 22.5 °F 30.02 in SSE 1.2 mph 2.3 mph 83 % 0.00 in
06:03 27.2 °F 22.7 °F 30.03 in SSE 0.8 mph 3.5 mph 83 % 0.00 in
06:08 27.4 °F 22.6 °F 30.03 in SSE 0.7 mph 2.3 mph 82 % 0.00 in
06:13 27.7 °F 22.9 °F 30.03 in SSE 3.4 mph 7.0 mph 82 % 0.00 in
06:18 28.2 °F 23.1 °F 30.03 in South 2.1 mph 4.0 mph 81 % 0.00 in
06:23 28.5 °F 23.1 °F 30.03 in SSE 0.5 mph 3.5 mph 80 % 0.00 in
06:28 28.6 °F 22.9 °F 30.03 in South 1.0 mph 3.5 mph 79 % 0.00 in
06:34 28.7 °F 23.0 °F 30.03 in SSE 3.0 mph 5.0 mph 79 % 0.00 in
06:39 28.8 °F 22.8 °F 30.03 in SSE 2.1 mph 4.6 mph 78 % 0.00 in
06:44 28.9 °F 22.9 °F 30.03 in South 2.3 mph 3.5 mph 78 % 0.00 in
06:49 29.0 °F 23.0 °F 30.03 in SSE 1.5 mph 3.5 mph 78 % 0.00 in
06:54 29.0 °F 22.7 °F 30.02 in SSE 1.3 mph 4.6 mph 77 % 0.00 in
07:04 29.2 °F 22.9 °F 30.02 in SSE 1.9 mph 3.5 mph 77 % 0.00 in
07:09 29.2 °F 22.6 °F 30.02 in SSE 3.0 mph 4.0 mph 76 % 0.00 in
07:14 29.3 °F 22.7 °F 30.02 in SSE 1.1 mph 2.3 mph 76 % 0.00 in
07:19 29.2 °F 22.6 °F 30.02 in SSE 0.4 mph 3.5 mph 76 % 0.00 in
07:25 29.3 °F 22.7 °F 30.02 in SSE 1.0 mph 1.2 mph 76 % 0.00 in
07:30 29.4 °F 22.8 °F 30.02 in SSE 0.8 mph 2.3 mph 76 % 0.00 in
07:35 29.4 °F 22.8 °F 30.02 in SSE 0.1 mph 2.3 mph 76 % 0.00 in
07:40 29.5 °F 23.2 °F 30.02 in SSE 0.3 mph 2.3 mph 77 % 0.00 in
07:45 29.5 °F 23.5 °F 30.02 in SSE 1.4 mph 3.0 mph 78 % 0.00 in
07:50 29.7 °F 23.7 °F 30.01 in SSE 2.0 mph 3.5 mph 78 % 0.00 in
08:00 30.3 °F 24.6 °F 30.01 in SSE 1.4 mph 3.5 mph 79 % 0.00 in
08:05 30.7 °F 25.3 °F 30.01 in SSE 2.1 mph 3.5 mph 80 % 0.00 in
08:10 31.2 °F 25.7 °F 30.01 in SSE 0.1 mph 2.3 mph 80 % 0.00 in
08:16 31.7 °F 25.9 °F 30.01 in SSE 1.6 mph 3.5 mph 79 % 0.00 in
08:21 32.2 °F 26.1 °F 30.01 in SSE 2.1 mph 3.5 mph 78 % 0.00 in
08:26 32.6 °F 26.5 °F 30.00 in SSE 1.1 mph 3.5 mph 78 % 0.00 in
08:31 33.0 °F 26.6 °F 30.00 in SSE 2.5 mph 3.5 mph 77 % 0.00 in
08:36 33.5 °F 27.1 °F 30.00 in SSE 0.9 mph 2.3 mph 77 % 0.00 in
08:41 33.9 °F 27.1 °F 30.00 in SE 3.1 mph 4.6 mph 76 % 0.00 in
08:46 34.3 °F 27.5 °F 30.00 in SE 3.7 mph 5.0 mph 76 % 0.00 in
08:56 35.3 °F 28.2 °F 29.99 in SE 1.5 mph 5.0 mph 75 % 0.00 in
09:01 36.0 °F 28.5 °F 29.99 in SSE 3.9 mph 5.8 mph 74 % 0.00 in
09:07 36.6 °F 28.4 °F 29.99 in SSE 1.2 mph 3.5 mph 72 % 0.00 in
09:12 37.2 °F 28.7 °F 29.98 in SSE 1.9 mph 3.5 mph 71 % 0.00 in
09:17 37.7 °F 28.8 °F 29.98 in SSE 2.6 mph 4.0 mph 70 % 0.00 in
09:22 38.2 °F 29.3 °F 29.98 in SSE 3.6 mph 5.0 mph 70 % 0.00 in
09:27 38.8 °F 29.5 °F 29.97 in SSE 3.3 mph 4.6 mph 69 % 0.00 in
09:32 39.5 °F 29.8 °F 29.97 in SSE 0.7 mph 3.5 mph 68 % 0.00 in
09:37 40.2 °F 29.7 °F 29.97 in Calm   1.2 mph 66 % 0.00 in
09:42 41.0 °F 30.5 °F 29.98 in SE 0.3 mph 2.0 mph 66 % 0.00 in
09:47 41.4 °F 30.1 °F 29.98 in SE 0.2 mph 1.2 mph 64 % 0.00 in
09:52 41.6 °F 29.9 °F 29.98 in SSE 2.6 mph 3.5 mph 63 % 0.00 in
09:58 42.0 °F 29.9 °F 29.98 in SSE 1.7 mph 3.5 mph 62 % 0.00 in
10:03 42.5 °F 30.4 °F 29.98 in SSW 2.8 mph 5.0 mph 62 % 0.00 in
10:08 43.3 °F 31.1 °F 29.97 in SE 0.5 mph 3.5 mph 62 % 0.00 in
10:13 43.9 °F 30.9 °F 29.97 in SSW 2.9 mph 4.6 mph 60 % 0.00 in
10:18 44.5 °F 31.5 °F 29.97 in South 2.5 mph 6.9 mph 60 % 0.00 in
10:23 45.0 °F 31.5 °F 29.97 in South 3.8 mph 6.9 mph 59 % 0.00 in
10:28 45.3 °F 31.4 °F 29.97 in South 6.1 mph 10.0 mph 58 % 0.00 in
10:33 45.2 °F 31.3 °F 29.97 in South 3.8 mph 6.0 mph 58 % 0.00 in
10:38 44.9 °F 31.0 °F 29.96 in SSE 4.0 mph 11.5 mph 58 % 0.00 in
10:43 44.8 °F 31.8 °F 29.96 in South 0.2 mph 4.6 mph 60 % 0.00 in
10:49 45.2 °F 31.7 °F 29.96 in SSE 3.9 mph 10.4 mph 59 % 0.00 in
10:54 45.6 °F 32.1 °F 29.96 in South 3.2 mph 4.0 mph 59 % 0.00 in
10:59 46.1 °F 31.7 °F 29.95 in SW 5.2 mph 9.2 mph 57 % 0.00 in
11:04 46.4 °F 32.0 °F 29.95 in SE 6.8 mph 11.5 mph 57 % 0.00 in
11:09 46.3 °F 31.4 °F 29.95 in South 3.6 mph 7.0 mph 56 % 0.00 in
11:14 46.1 °F 31.3 °F 29.94 in SW 7.1 mph 11.5 mph 56 % 0.00 in
11:19 45.6 °F 31.2 °F 29.94 in SSE 6.1 mph 9.2 mph 57 % 0.00 in
11:24 45.6 °F 30.8 °F 29.94 in SE 7.8 mph 11.5 mph 56 % 0.00 in
11:29 45.6 °F 31.2 °F 29.93 in WSW 4.0 mph 6.9 mph 57 % 0.00 in
11:34 45.8 °F 30.5 °F 29.93 in SW 5.6 mph 11.5 mph 55 % 0.00 in
11:40 45.8 °F 31.0 °F 29.92 in SSW 7.9 mph 15.0 mph 56 % 0.00 in
11:45 45.6 °F 30.8 °F 29.92 in WSW 7.0 mph 8.1 mph 56 % 0.00 in
11:50 45.4 °F 30.6 °F 29.91 in SSW 3.9 mph 10.4 mph 56 % 0.00 in
11:55 45.2 °F 31.3 °F 29.91 in South 3.5 mph 8.1 mph 58 % 0.00 in
12:00 45.2 °F 30.9 °F 29.91 in SSW 5.7 mph 8.1 mph 57 % 0.00 in
12:05 45.1 °F 30.8 °F 29.91 in SSW 4.4 mph 7.0 mph 57 % 0.00 in
12:10 45.1 °F 30.8 °F 29.90 in WSW 6.1 mph 10.4 mph 57 % 0.00 in
12:15 45.4 °F 31.0 °F 29.90 in SSE 4.4 mph 9.2 mph 57 % 0.00 in
12:20 45.4 °F 31.0 °F 29.90 in South 2.9 mph 9.2 mph 57 % 0.00 in
12:25 45.1 °F 30.3 °F 29.89 in South 6.8 mph 11.5 mph 56 % 0.00 in
12:31 45.0 °F 30.7 °F 29.88 in SW 3.2 mph 6.9 mph 57 % 0.00 in
12:36 45.2 °F 30.9 °F 29.88 in South 2.0 mph 9.2 mph 57 % 0.00 in
12:41 45.5 °F 31.1 °F 29.87 in SW 5.8 mph 9.2 mph 57 % 0.00 in
12:46 45.5 °F 30.7 °F 29.87 in SSW 7.9 mph 11.5 mph 56 % 0.00 in
12:51 45.6 °F 31.2 °F 29.87 in SSW 7.7 mph 11.5 mph 57 % 0.00 in
12:56 45.7 °F 31.3 °F 29.87 in SSW 4.9 mph 9.2 mph 57 % 0.00 in
13:01 45.9 °F 31.5 °F 29.86 in SW 5.4 mph 6.9 mph 57 % 0.00 in
13:06 46.1 °F 32.1 °F 29.86 in SSW 6.8 mph 10.4 mph 58 % 0.00 in
13:11 46.1 °F 31.7 °F 29.86 in SSW 2.7 mph 6.9 mph 57 % 0.00 in
13:22 46.3 °F 31.0 °F 29.85 in SSW 8.6 mph 9.2 mph 55 % 0.00 in
13:27 46.4 °F 31.5 °F 29.85 in SSW 4.0 mph 8.1 mph 56 % 0.00 in
13:32 46.6 °F 31.7 °F 29.84 in SW 5.8 mph 8.1 mph 56 % 0.00 in
13:37 46.8 °F 31.9 °F 29.84 in WSW 4.8 mph 6.9 mph 56 % 0.00 in
13:42 47.1 °F 31.3 °F 29.84 in SSW 8.4 mph 16.1 mph 54 % 0.00 in
13:47 47.2 °F 31.4 °F 29.83 in SSW 8.9 mph 11.5 mph 54 % 0.00 in
13:52 47.2 °F 30.9 °F 29.83 in SW 5.6 mph 8.1 mph 53 % 0.00 in
13:57 47.1 °F 30.8 °F 29.83 in SSW 7.5 mph 15.0 mph 53 % 0.00 in
14:02 47.1 °F 30.4 °F 29.83 in SSW 1.6 mph 9.2 mph 52 % 0.00 in
14:07 47.1 °F 30.4 °F 29.83 in WSW 5.5 mph 13.0 mph 52 % 0.00 in
14:13 47.0 °F 29.8 °F 29.83 in SSW 7.8 mph 11.5 mph 51 % 0.00 in
14:18 46.7 °F 29.5 °F 29.82 in SW 5.7 mph 9.2 mph 51 % 0.00 in
14:23 46.6 °F 29.4 °F 29.82 in South 4.7 mph 9.2 mph 51 % 0.00 in
14:28 46.5 °F 29.8 °F 29.82 in SSW 3.4 mph 6.9 mph 52 % 0.00 in
14:33 46.3 °F 29.6 °F 29.82 in SW 4.0 mph 6.0 mph 52 % 0.00 in
14:38 46.1 °F 29.0 °F 29.81 in SSW 5.0 mph 7.0 mph 51 % 0.00 in
14:43 45.8 °F 28.7 °F 29.81 in South 2.2 mph 4.0 mph 51 % 0.00 in
14:53 45.2 °F 28.6 °F 29.80 in South 4.3 mph 5.0 mph 52 % 0.00 in
14:58 44.9 °F 28.3 °F 29.80 in SSW 4.7 mph 7.0 mph 52 % 0.00 in
15:04 44.7 °F 28.1 °F 29.80 in SE 3.3 mph 6.9 mph 52 % 0.00 in
15:09 44.6 °F 28.5 °F 29.80 in SSW 3.6 mph 5.8 mph 53 % 0.00 in
15:14 44.5 °F 28.4 °F 29.80 in SW 3.4 mph 5.8 mph 53 % 0.00 in
15:19 44.5 °F 28.4 °F 29.81 in South 0.7 mph 3.5 mph 53 % 0.00 in
15:24 44.4 °F 27.9 °F 29.81 in WSW 3.8 mph 5.8 mph 52 % 0.00 in
15:29 44.3 °F 27.8 °F 29.80 in SSW 4.9 mph 9.0 mph 52 % 0.00 in
15:34 44.2 °F 27.2 °F 29.80 in SSW 1.8 mph 6.0 mph 51 % 0.00 in
15:39 44.2 °F 27.7 °F 29.79 in SW 4.4 mph 5.8 mph 52 % 0.00 in
15:44 44.2 °F 27.7 °F 29.80 in SSW 3.6 mph 6.9 mph 52 % 0.00 in
15:49 44.1 °F 27.6 °F 29.80 in SSW 5.2 mph 6.0 mph 52 % 0.00 in
15:55 44.0 °F 28.0 °F 29.79 in SSW 2.4 mph 8.1 mph 53 % 0.00 in
16:00 43.8 °F 27.8 °F 29.79 in SW 2.6 mph 4.6 mph 53 % 0.00 in
16:05 43.7 °F 27.7 °F 29.78 in SW 2.1 mph 3.0 mph 53 % 0.00 in
16:10 43.6 °F 28.0 °F 29.78 in Calm   2.3 mph 54 % 0.00 in
16:15 43.5 °F 27.9 °F 29.78 in South 0.8 mph 3.5 mph 54 % 0.00 in
16:20 43.3 °F 27.8 °F 29.78 in SW 1.4 mph 3.5 mph 54 % 0.00 in
16:25 43.2 °F 27.7 °F 29.79 in SSW 3.0 mph 3.5 mph 54 % 0.00 in
16:30 43.0 °F 27.0 °F 29.78 in SW 1.2 mph 4.0 mph 53 % 0.00 in
16:35 42.9 °F 27.4 °F 29.78 in SW 0.3 mph 3.5 mph 54 % 0.00 in
16:40 42.7 °F 26.7 °F 29.78 in SSW 2.6 mph 3.5 mph 53 % 0.00 in
16:46 42.6 °F 27.1 °F 29.78 in SW 2.0 mph 3.0 mph 54 % 0.00 in
16:51 42.4 °F 26.9 °F 29.77 in Calm   2.3 mph 54 % 0.00 in
16:56 42.3 °F 26.8 °F 29.77 in Calm   1.2 mph 54 % 0.00 in
17:06 41.9 °F 26.4 °F 29.77 in SW 0.2 mph 1.0 mph 54 % 0.00 in
17:11 41.6 °F 26.6 °F 29.77 in SW 0.1 mph 1.2 mph 55 % 0.00 in
17:16 41.4 °F 26.4 °F 29.77 in Calm   1.2 mph 55 % 0.00 in
17:26 40.8 °F 26.3 °F 29.77 in Calm     56 % 0.00 in
17:32 40.4 °F 26.8 °F 29.77 in Calm     58 % 0.00 in
17:37 40.0 °F 26.8 °F 29.78 in Calm     59 % 0.00 in
17:47 39.3 °F 27.0 °F 29.77 in SW 0.5 mph 1.2 mph 61 % 0.00 in
17:52 39.1 °F 26.8 °F 29.77 in Calm     61 % 0.00 in
17:57 38.7 °F 26.8 °F 29.77 in Calm     62 % 0.00 in
18:02 38.3 °F 26.8 °F 29.77 in Calm     63 % 0.00 in
18:07 38.0 °F 26.9 °F 29.77 in Calm     64 % 0.00 in
18:12 37.7 °F 26.6 °F 29.77 in Calm     64 % 0.00 in
18:17 37.4 °F 26.7 °F 29.77 in Calm     65 % 0.00 in
18:23 37.2 °F 26.9 °F 29.76 in Calm     66 % 0.00 in
18:28 37.0 °F 27.1 °F 29.76 in Calm     67 % 0.00 in
18:33 36.8 °F 26.9 °F 29.76 in SW 0.2 mph 1.2 mph 67 % 0.00 in
18:38 36.6 °F 27.0 °F 29.76 in Calm     68 % 0.00 in
18:43 36.5 °F 26.9 °F 29.75 in Calm     68 % 0.00 in
18:48 36.4 °F 26.8 °F 29.76 in SW 0.1 mph 1.2 mph 68 % 0.00 in
18:53 36.3 °F 26.4 °F 29.76 in Calm     67 % 0.00 in
18:58 36.2 °F 26.6 °F 29.75 in SW 0.6 mph 1.2 mph 68 % 0.00 in
19:08 36.1 °F 26.9 °F 29.75 in Calm     69 % 0.00 in
19:14 36.0 °F 26.8 °F 29.75 in SW 0.1 mph   69 % 0.00 in
19:19 36.1 °F 27.3 °F 29.75 in Calm     70 % 0.00 in
19:24 36.1 °F 27.6 °F 29.76 in Calm     71 % 0.00 in
19:29 36.1 °F 27.3 °F 29.76 in Calm     70 % 0.00 in
19:34 36.0 °F 27.2 °F 29.75 in Calm     70 % 0.00 in
19:39 36.0 °F 27.2 °F 29.75 in Calm     70 % 0.00 in
19:44 35.9 °F 27.4 °F 29.74 in Calm     71 % 0.00 in
19:49 35.8 °F 27.3 °F 29.74 in Calm     71 % 0.00 in
19:54 35.8 °F 27.3 °F 29.74 in Calm     71 % 0.00 in
19:59 35.7 °F 27.6 °F 29.74 in Calm     72 % 0.00 in
20:05 35.6 °F 27.5 °F 29.73 in Calm     72 % 0.00 in
20:10 35.5 °F 27.7 °F 29.72 in Calm     73 % 0.00 in
20:15 35.4 °F 27.6 °F 29.72 in Calm     73 % 0.00 in
20:20 35.3 °F 27.5 °F 29.72 in Calm   1.2 mph 73 % 0.00 in
20:25 35.2 °F 27.4 °F 29.72 in Calm     73 % 0.00 in
20:30 35.1 °F 27.3 °F 29.72 in SW 0.1 mph 1.2 mph 73 % 0.00 in
20:35 35.0 °F 27.5 °F 29.72 in Calm     74 % 0.00 in
20:40 34.9 °F 27.5 °F 29.72 in Calm     74 % 0.00 in
20:45 34.8 °F 27.4 °F 29.71 in Calm     74 % 0.00 in
20:50 34.7 °F 27.3 °F 29.72 in Calm     74 % 0.00 in
20:56 34.6 °F 27.5 °F 29.72 in Calm     75 % 0.00 in
21:01 34.6 °F 27.5 °F 29.72 in Calm     75 % 0.00 in
21:06 34.6 °F 27.5 °F 29.72 in Calm     75 % 0.00 in
21:16 34.6 °F 27.8 °F 29.71 in Calm     76 % 0.00 in
21:21 34.6 °F 27.8 °F 29.71 in Calm     76 % 0.00 in
21:26 34.6 °F 28.1 °F 29.71 in Calm     77 % 0.00 in
21:36 34.6 °F 28.4 °F 29.70 in Calm     78 % 0.00 in
21:41 34.6 °F 28.4 °F 29.69 in Calm     78 % 0.00 in
21:47 34.5 °F 28.3 °F 29.69 in Calm     78 % 0.00 in
21:52 34.6 °F 28.4 °F 29.68 in Calm     78 % 0.00 in
21:57 34.5 °F 28.3 °F 29.67 in Calm     78 % 0.00 in
22:02 34.4 °F 28.6 °F 29.69 in Calm   1.2 mph 79 % 0.00 in
22:07 34.3 °F 28.5 °F 29.69 in Calm     79 % 0.00 in
22:12 34.2 °F 28.4 °F 29.68 in Calm     79 % 0.00 in
22:17 34.3 °F 28.5 °F 29.68 in Calm     79 % 0.00 in
22:22 34.3 °F 28.5 °F 29.68 in Calm     79 % 0.00 in
22:27 34.3 °F 28.5 °F 29.67 in Calm     79 % 0.00 in
22:32 34.3 °F 28.5 °F 29.67 in Calm     79 % 0.00 in
22:43 34.4 °F 28.9 °F 29.67 in Calm     80 % 0.00 in
22:48 34.4 °F 28.9 °F 29.67 in SW 0.5 mph 1.2 mph 80 % 0.00 in
22:53 34.4 °F 28.6 °F 29.67 in Calm     79 % 0.00 in
22:58 34.4 °F 28.6 °F 29.66 in Calm     79 % 0.00 in
23:03 34.5 °F 28.7 °F 29.66 in Calm     79 % 0.00 in
23:08 34.5 °F 28.7 °F 29.66 in Calm     79 % 0.00 in
23:13 34.5 °F 28.7 °F 29.67 in Calm   1.2 mph 79 % 0.00 in
23:18 34.5 °F 28.7 °F 29.66 in Calm     79 % 0.00 in
23:23 34.5 °F 28.7 °F 29.66 in Calm     79 % 0.00 in
23:29 34.6 °F 28.8 °F 29.66 in Calm     79 % 0.00 in
23:34 34.6 °F 28.8 °F 29.65 in Calm     79 % 0.00 in
23:39 34.5 °F 29.0 °F 29.65 in Calm   1.2 mph 80 % 0.00 in
23:44 34.5 °F 29.0 °F 29.66 in Calm     80 % 0.00 in
23:54 34.5 °F 29.0 °F 29.66 in Calm   1.2 mph 80 % 0.00 in
23:59 34.5 °F 29.0 °F 29.66 in SW 0.1 mph 1.0 mph 80 % 0.00 in
Crab Meadow Weather
Compliments of Weather Underground - 3 mb

Script developed by  Jim McMurry - jmcmurry@mwt.net Adapted for the template by  Wim van der Kuil - Leuven-Template.eu

Recycling: Americans throw away 25,000,000,000 Styrofoam coffee cups every year.